DW9579 Weather Reports


time (UTC)temp
C
wind
direction
speed
KPH
gust
KPH
rain 1hr
cm
rain 24hr
cm
rain mn
cm
humidity
%
barometer
mb
20260503195940 16 259 14.5 20.9 0.00 0.00 0.00 70 1012.7
20260503194942 16 260 14.5 19.3 0.00 0.00 0.00 72 1012.7
20260503193958 16 286 4.8 19.3 0.00 0.00 0.00 69 1012.7
20260503192957 16 231 8.0 17.7 0.00 0.00 0.00 70 1012.7
20260503191934 16 263 6.4 9.7 0.00 0.00 0.00 70 1012.7
20260503190951 16 267 4.8 9.7 0.00 0.00 0.00 71 1012.9
20260503185921 16 270 8.0 11.3 0.00 0.00 0.00 71 1012.7
20260503184923 15 267 4.8 9.7 0.00 0.00 0.00 71 1012.7
20260503183924 15 265 6.4 11.3 0.00 0.00 0.00 73 1012.8
20260503182922 15 236 8.0 12.9 0.00 0.00 0.00 73 1012.7
20260503181921 15 298 9.7 16.1 0.00 0.00 0.00 72 1012.7
20260503180923 15 232 9.7 12.9 0.00 0.00 0.00 73 1012.8
20260503175932 15 211 8.0 12.9 0.00 0.00 0.00 74 1012.6
20260503174931 15 229 9.7 16.1 0.00 0.00 0.00 75 1012.6
20260503173929 14 213 9.7 14.5 0.00 0.00 0.00 75 1012.7
20260503172949 13 219 11.3 20.9 0.00 0.00 0.00 76 1012.7
20260503171951 13 222 12.9 20.9 0.00 0.00 0.00 77 1012.7
20260503170929 13 224 16.1 22.5 0.00 0.00 0.00 78 1012.7
20260503150929 13 240 4.8 12.9 0.00 0.00 0.00 76 1012.0
20260503130932 12 262 6.4 12.9 0.00 0.00 0.00 76 1010.6
20260503080943 12 253 14.5 20.9 0.00 0.00 0.00 77 1011.6
20260503072000 12 270 14.5 20.9 0.00 0.00 0.00 77 1011.6
20260503070939 12 271 12.9 20.9 0.00 0.00 0.00 77 1011.6
20260503054950 12 267 11.3 19.3 0.00 0.00 0.00 76 1011.7
20260503054008 12 266 12.9 19.3 0.00 0.00 0.00 77 1012.0
20260503053006 12 258 14.5 19.3 0.00 0.00 0.00 77 1012.1
20260503051945 12 260 14.5 24.1 0.00 0.00 0.00 77 1012.1
20260503050944 12 257 14.5 22.5 0.00 0.00 0.00 77 1012.1
20260503045959 12 260 11.3 22.5 0.00 0.00 0.00 77 1012.1
20260503044958 12 260 14.5 22.5 0.00 0.00 0.00 76 1012.0
20260503043957 12 277 12.9 24.1 0.00 0.00 0.00 77 1011.7
20260503042954 12 269 17.7 25.7 0.00 0.00 0.00 76 1011.7
20260503041939 12 245 12.9 22.5 0.00 0.00 0.00 77 1011.6
20260503040941 12 269 16.1 24.1 0.00 0.00 0.00 77 1011.6
20260503040013 13 274 12.9 27.4 0.00 0.00 0.00 77 1011.6
20260503034951 13 261 14.5 19.3 0.00 0.00 0.00 77 1011.6
20260503033949 12 286 14.5 24.1 0.00 0.00 0.00 77 1011.5
20260503032951 13 250 19.3 25.7 0.00 0.00 0.00 77 1011.5
20260503031949 13 264 16.1 25.7 0.00 0.00 0.00 77 1011.2
20260503030950 12 279 11.3 24.1 0.00 0.00 0.00 76 1011.0
20260503025942 13 273 14.5 24.1 0.00 0.00 0.00 77 1011.0
20260503025000 12 279 14.5 24.1 0.00 0.00 0.00 77 1011.0
20260503023944 13 275 14.5 27.4 0.00 0.00 0.00 77 1011.0
20260503022944 13 274 14.5 24.1 0.00 0.00 0.00 76 1011.0
20260503021942 13 288 16.1 25.7 0.00 0.00 0.00 76 1011.0
20260503021004 13 274 17.7 24.1 0.00 0.00 0.00 76 1011.1
20260503015950 13 281 16.1 27.4 0.00 0.00 0.00 76 1011.1
20260503014956 13 260 20.9 29.0 0.00 0.00 0.00 76 1011.1
20260503013954 13 261 17.7 29.0 0.00 0.00 0.00 76 1011.1
20260503012954 13 254 17.7 29.0 0.00 0.00 0.00 76 1011.1
20260503011956 13 264 22.5 27.4 0.00 0.00 0.00 76 1011.3
20260503011000 13 276 20.9 27.4 0.00 0.00 0.00 75 1011.3
20260503005959 13 263 17.7 27.4 0.00 0.00 0.00 75 1011.3
20260503004957 13 259 17.7 25.7 0.00 0.00 0.00 75 1011.3
20260503003956 13 276 17.7 27.4 0.00 0.00 0.00 75 1011.4
20260503002955 13 260 17.7 27.4 0.00 0.00 0.00 74 1011.4
20260503001957 14 271 19.3 25.7 0.00 0.00 0.00 74 1011.6
20260503000955 14 279 19.3 27.4 0.00 0.00 0.00 74 1011.6
20260502235945 14 246 17.7 24.1 0.00 0.00 0.00 74 1011.6
20260502234944 14 261 16.1 24.1 0.00 0.00 0.00 74 1011.6
20260502234003 14 261 17.7 25.7 0.00 0.00 0.00 74 1011.7
20260502232948 15 269 17.7 25.7 0.00 0.00 0.00 74 1011.7
20260502231951 15 257 14.5 24.1 0.00 0.00 0.00 73 1012.0
20260502230949 15 275 12.9 25.7 0.00 0.00 0.00 73 1012.1
20260502230019 15 271 12.9 25.7 0.00 0.00 0.00 73 1012.1
20260502224939 15 243 17.7 25.7 0.00 0.00 0.00 73 1012.4
20260502223941 15 244 17.7 25.7 0.00 0.00 0.00 73 1012.6
20260502223001 15 248 14.5 22.5 0.00 0.00 0.00 73 1012.8
20260502221942 15 257 17.7 25.7 0.00 0.00 0.00 74 1012.8
20260502221000 15 248 17.7 24.1 0.00 0.00 0.00 74 1013.0
20260502215954 15 241 16.1 24.1 0.00 0.00 0.00 74 1013.0
20260502215016 15 246 17.7 24.1 0.00 0.00 0.00 73 1013.1
20260502213953 15 246 22.5 29.0 0.00 0.00 0.00 73 1013.1
20260502212955 15 238 19.3 27.4 0.00 0.00 0.00 72 1013.1
20260502211954 15 240 20.9 27.4 0.00 0.00 0.00 72 1013.1
20260502210955 15 229 22.5 27.4 0.00 0.00 0.00 73 1013.4
20260502205944 15 241 20.9 27.4 0.00 0.00 0.00 73 1013.5
20260502204941 14 240 20.9 29.0 0.00 0.00 0.00 74 1013.5
20260502204019 15 240 17.7 27.4 0.00 0.00 0.00 74 1013.7
20260502202956 14 250 17.7 24.1 0.00 0.00 0.00 74 1013.7
20260502201941 14 251 17.7 29.0 0.00 0.00 0.00 75 1013.7
20260502201002 14 250 17.7 29.0 0.00 0.00 0.00 75 1013.8